Regional Weather Roundup
Issued by NWS San Angelo, TX

Home | Current Version | Previous Version | Text Only | Print | Product List | Glossary On
Versions: 1 2 3 4 5 6 7 8 9 10 11 12 13 14 15 16 17 18 19 20 21 22 23 24 25 26 27 28 29 30 31 32 33 34 35 36 37 38 39 40 41 42 43 44 45 46 47 48 49 50
000
ASUS44 KSJT 010711
RWRSJT
WEST CENTRAL TEXAS REGIONAL WEATHER ROUNDUP
NATIONAL WEATHER SERVICE SAN ANGELO TX
200 AM CDT SUN MAY 01 2016

NOTE: "FAIR" INDICATES FEW OR NO CLOUDS BELOW 12,000 FEET WITH NO
SIGNIFICANT WEATHER AND/OR OBSTRUCTIONS TO VISIBILITY.

TXZ049-054-064>066-071>073-076>078-098-099-113-114-127-128-139-140-
154-155-168>170-010800
...LOCATIONS ACROSS WEST CENTRAL TEXAS...

CITY           SKY/WX    TMP DP  RH WIND       PRES   REMARKS
SAN ANGELO     CLEAR     61  53  75 E9        29.87R
ABILENE        CLEAR     60  50  69 NE5       29.92R
DYESS AFB      CLEAR     58  51  77 N5        29.91R
JUNCTION       CLEAR     63  53  70 E5        29.85S
SWEETWATER     CLEAR     57  50  78 NE7       29.98R
BROWNWOOD      CLEAR     63  54  72 NE9       29.88F
COLEMAN        SUNNY     59  53  80 NE5       29.90R
SONORA         CLEAR     64  48  55 E8        29.88S
OZONA          FAIR      63  45  51 E9        29.86S
BRADY          NOT AVBL
$$

TEXAS PANHANDLE/OKLAHOMA PANHANDLE

CITY           SKY/WX    TMP DP  RH WIND       PRES   REMARKS
AMARILLO       CLEAR     42  32  67 N28G36    30.06F WCI  32
BORGER         LGT RAIN  44  33  65 N24G33    30.09S WCI  35
CANADIAN       CLOUDY    46  35  65 N16       30.07S WCI  40
DALHART        CLOUDY    42  30  62 N15       30.14R WCI  34
DUMAS          CLOUDY    40  32  73 N20G26    30.11S WCI  31
GUYMON         NOT AVBL
HEREFORD       CLOUDY    41  37  87 N21G26    30.09R WCI  32
PAMPA          CLOUDY    44  35  71 N24G32    30.08R WCI  35
PERRYTON       CLOUDY    41  33  73 NW17G25   30.05R WCI  33
$$

SOUTHERN PANHANDLE/SOUTH PLAINS/ROLLING PLAINS

CITY           SKY/WX    TMP DP  RH WIND       PRES   REMARKS
LUBBOCK        PTCLDY    50  36  58 NE16      30.02R
SNYDER           N/A     58  45  60 NE13      29.97R
CHILDRESS      CLEAR     54  36  50 N16       30.01R
SEMINOLE       SUNNY     57  40  52 NE23G31   29.97R
$$

PERMIAN BASIN

CITY           SKY/WX    TMP DP  RH WIND       PRES   REMARKS
MIDLAND        CLEAR     63  45  51 E17       29.88R
ODESSA         CLEAR     63  44  50 E18G26    29.88S
WINK           CLEAR     66  37  34 E18       29.80S
$$

FAR WEST/SOUTHWEST MOUNTAINS/TRANS PECOS

CITY           SKY/WX    TMP DP  RH WIND       PRES   REMARKS
ALPINE         SUNNY     62  28  27 CALM      29.88S
DRYDEN           N/A     72  42  34 E13       29.76S
EL PASO        MOCLDY    67  14  13 W9        29.79S
FORT STOCKTON  CLEAR     62  31  31 E13       29.78S
GUADALUPE PASS CLEAR     59  21  23 NE28      29.88S
MARFA          CLEAR     48  23  37 N6        29.86S
PECOS          SUNNY     67  39  35 E17       29.77S
$$

DALLAS/FORT WORTH METROPLEX

CITY           SKY/WX    TMP DP  RH WIND       PRES   REMARKS
DFW AIRPORT    PTCLDY    63  57  81 N9        29.88F
FTW MEACHAM    CLEAR     62  54  74 N9        29.89S
DAL-EXECUTIVE  CLEAR     61  57  87 N5        29.88F
GRAND PRAIRIE  CLEAR     64  57  80 CALM      29.90S
ADDISON        CLEAR     64  61  88 N5        29.90F
MESQUITE       SUNNY     62  61  98 NE3       29.88F
LANCASTER      MOSUNNY   60  56  87 CALM      29.89F
$$

NORTH CENTRAL TEXAS

CITY           SKY/WX    TMP DP  RH WIND       PRES   REMARKS
SHRMAN/DENISON SUNNY     56  52  85 N13       29.93S
GAINESVILLE    CLEAR     58  50  74 NE10      29.94F
BRIDGEPORT     MOSUNNY   57  52  85 CALM      29.92F
DENTON         PTCLDY    57  53  86 N7        29.89F
WAXAHACHIE     SUNNY     62  59  91 N3        29.90S
GRANBURY       SUNNY     59  56  89 CALM      29.90F
$$

WESTERN NORTH TEXAS

CITY           SKY/WX    TMP DP  RH WIND       PRES   REMARKS
WICHITA FALLS  CLEAR     54  46  74 NE7       29.94R
VERNON         SUNNY     55  42  62 N8        30.00R
BRECKENRIDGE   SUNNY     58  51  77 NE5       29.91S
COMANCHE       CLEAR     60  55  85 NE5       29.90F
$$

CENTRAL AND SOUTH CENTRAL TEXAS

CITY           SKY/WX    TMP DP  RH WIND       PRES   REMARKS
AUSTIN/BERGSTM CLEAR     70  66  87 NE8       29.83S
WACO           CLEAR     62  59  90 NE7       29.87S
HILLSBORO      SUNNY     63  58  83 N7        29.88F
TEMPLE         CLEAR     64  60  87 N7        29.86F
KILLEEN-GRAY   CLEAR     64  59  83 NE8       29.86S
FORT HOOD      CLEAR     64  58  81 NE5       29.85S
GEORGETOWN       N/A    N/A N/A N/A MISG        N/A
LAGO VISTA     FAIR      66  64  91 NE9       29.87S
SAN MARCOS     CLEAR     68  64  88 NE9       29.83S
NEW BRAUNFELS  CLEAR     69  65  86 NE8       29.81S
RANDOLPH AFB   CLEAR     69  68  95 NE7       29.80F FOG
SAN ANTONIO    PTCLDY    70  64  81 NE8       29.81F
STINSON        MOCLDY    74  65  73 NE13      29.78F
PLEASANTON     NOT AVBL
LA GRANGE        N/A     74  69  85 NE8       29.81R
GIDDINGS       MOSUNNY   70  66  88 NE7       29.87S
$$

EAST TEXAS

CITY           SKY/WX    TMP DP  RH WIND       PRES   REMARKS
PARIS          CLEAR     61  54  77 N6        29.90S
CLARKSVILLE    NOT AVBL
TYLER          CLEAR     66  62  87 N3        29.88R
LONGVIEW       CLOUDY    69  64  84 N8        29.86R
PALESTINE      SUNNY     67  64  91 N7        29.88S
NACOGDOCHES    MOCLDY    70  66  88 N6        29.85S
$$

TEXAS HILL COUNTRY AND EDWARDS PLATEAU

CITY           SKY/WX    TMP DP  RH WIND       PRES   REMARKS
LLANO          SUNNY     64  61  88 CALM      29.89S
HORSESHOE BAY  FAIR      67  62  85 E5        29.86S
KERRVILLE      CLEAR     59  57  95 CALM      29.84F
FREDERICKSBRG  CLEAR     63  58  86 E6        29.86S
ROCKSPRINGS    SUNNY     64  54  68 E5        29.85F
HONDO          CLEAR     66  62  87 NE10      29.80F
UVALDE         SUNNY     65  60  83 E9        29.78S
DEL RIO        CLEAR     67  57  70 SE8       29.75R
$$

SOUTHEAST TEXAS

CITY           SKY/WX    TMP DP  RH WIND       PRES   REMARKS
COLLEGE STN    MOCLDY    71  66  84 NE9       29.84S
CALDWELL       MOSUNNY   70  66  88 N7        29.86F
CROCKETT       MOSUNNY   68  66  94 N6        29.88S
BRENHAM        CLEAR     72  69  90 NE3       29.84S
HUNTSVILLE     PTCLDY    70  67  90 N3        29.85S
CONROE         CLOUDY    73  69  87 VRB6      29.83S
HOUSTON BUSH   MOCLDY    74  74 100 N6        29.80F
HOUSTON HOBBY  MOCLDY    77  75  93 E3        29.79S
PERLAND        CLOUDY    78  76  93 CALM      29.80S FOG
WHARTON        CLOUDY    75  74  95 E3        29.80S FOG
$$

THE UPPER TEXAS COAST

CITY           SKY/WX    TMP DP  RH WIND       PRES   REMARKS
ORANGE         CLOUDY    77  74  89 S7        29.82S FOG
PORT ARTHUR    CLOUDY    77  76  96 S8        29.79F
GALVESTON      CLOUDY    77  77 100 SE8       29.79S
ANGLETON       CLOUDY    78  76  93 NE6       29.78S FOG
BAY CITY       CLOUDY    75  75 100 NE3       29.77F FOG
$$

TEXAS COASTAL BEND, RIO GRANDE PLAINS DEEP SOUTH TEXAS

CITY           SKY/WX    TMP DP  RH WIND       PRES   REMARKS
VICTORIA       CLOUDY    76  74  93 NE6       29.78S FOG
BEEVILLE       PTSUNNY   74  74 100 E6        29.77S FOG
ROCKPORT       MOCLDY    78  74  87 E8        29.75R
PORT ARANSAS   MOSUNNY   77  76  99 E6        29.74F
PORT LAVACA    CLOUDY    77  76  97 NE6       29.77S FOG
CORPUS CHRISTI MOCLDY    78  73  84 E9        29.74S
KINGSVILLE NAS CLOUDY    75  75 100 E3        29.74F FOG
COTULLA        CLEAR     75  64  68 E7        29.76S
LAREDO         CLEAR     74  67  78 E7        29.74F
BROWNSVILLE    CLOUDY    78  78 100 E5        29.72F FOG
PORT ISABEL    CLOUDY    80  78  94 E5        29.71S FOG
HEBBRONVILLE   CLOUDY    75  73  92 E7        29.77S FOG
MCALLEN        CLOUDY    80  75  84 E8        29.72F
WESLACO        CLOUDY    78  74  88 E5        29.71F FOG
FALFURRIAS     CLOUDY    76  73  90 NE3       29.74S
EDINBURG       CLOUDY    78  75  90 CALM      29.72F FOG
$$



USA.gov is the U.S. government's official web portal to all federal, state and local government web resources and services.